Content
SEND FEEDBACK

Daily
Averages
Monthly
Summary
United States of America

ROLLA, NORTH DAKOTA


Home > North America > United States > North Dakota
Elevation: 1883 feet     Latitude: 48 54N     Longitude: 099 40W

WEATHER
 
SELECT A DAY
Number of Records: 90,978;   Date Range: 11/18/10 - 10/20/14
 
SHARE

PRINT THIS DATA

[ ← Previous Day ]
WEATHER ALMANAC - JANUARY 23, 2013
[ Next Day → ]
[ °C ]   °F
Weather ElementAverageHighLow
Temperature-11.9 °F (8:55 am)-18.4 °F (6:35 pm)
Dewpoint-18.2 °F (8:55 am)-27.4 °F (8:15 pm)
Humidity73.2 %85 % (12:35 am)63 % (8:15 pm)
Barometer30.39 in30.51 in (5:15 pm)30.08 in (12:35 am)
Wind Speed10.9 mph24.2 mph (4:15 am)
Wind Gust29.9 mph (4:15 am)
Weather ElementAverage
Visibility9.6 mi
Wind DirectionSSW (202.3 °)

Weather ElementTotal
Precipitation---
Heating Degree Days74.2 (Base 65)
Averaged from 61 records on January 23, 2013
WEATHER CONDITIONS BREAKOUT
WIND DIRECTION BREAKOUT
WEATHER BY HOUR - JANUARY 23, 2013
[ °C ]   °F
Local TimeTemperatureDewpointHumidityBarometerVisibilityWind DirectionWind SpeedGust SpeedPrecipitationEventsConditions
12:35 AM-0.4 °F-4.0 °F85 %30.08 in10.0 miNW (320°)17.3 mphClear
12:55 AM-0.4 °F-5.8 °F78 %30.08 in10.0 miNW (320°)15.0 mphClear
3:55 AM-2.2 °F-7.6 °F78 %30.13 in10.0 miNNW (330°)21.9 mphClear
4:15 AM-4.0 °F-7.6 °F85 %30.14 in10.0 miNNW (330°)24.2 mph29.9 mphPartly Cloudy
4:35 AM-4.0 °F-9.4 °F78 %30.15 in10.0 miNNW (330°)23.0 mph28.8 mphScattered Clouds
4:55 AM-4.0 °F-9.4 °F78 %30.16 in10.0 miNNW (330°)21.9 mphMostly Cloudy
5:15 AM-5.8 °F-9.4 °F84 %30.17 in10.0 miNNW (330°)20.7 mphScattered Clouds
5:35 AM-7.6 °F-11.2 °F84 %30.19 in10.0 miNNW (330°)19.6 mph25.3 mphClear
6:15 AM-7.6 °F-13.0 °F77 %30.21 in10.0 miNNW (340°)17.3 mphPartly Cloudy
6:35 AM-9.4 °F-13.0 °F84 %30.22 in10.0 miNNW (340°)16.1 mphScattered Clouds
6:55 AM-9.4 °F-13.0 °F84 %30.23 in10.0 miNorth (350°)15.0 mphSnowLight Snow
7:15 AM-9.4 °F-14.8 °F77 %30.25 in10.0 miNNW (340°)13.8 mphSnowLight Snow
7:35 AM-11.2 °F-14.8 °F84 %30.26 in10.0 miNNW (340°)13.8 mphMostly Cloudy
7:55 AM-11.2 °F-14.8 °F84 %30.27 in10.0 miNNW (340°)11.5 mphMostly Cloudy
8:15 AM-11.2 °F-16.6 °F77 %30.29 in10.0 miNNW (330°)11.5 mphMostly Cloudy
8:35 AM-11.2 °F-16.6 °F77 %30.30 in5.0 miNNW (330°)10.4 mphSnowLight Snow
8:55 AM0.0 °F0.0 °F30.30 in4.0 miNNW (330°)11.5 mph
9:15 AM-11.2 °F-16.6 °F77 %30.33 in8.0 miNNW (330°)10.4 mphOvercast
9:35 AM-11.2 °F-16.6 °F77 %30.33 in9.0 miNNW (330°)15.0 mphMostly Cloudy
9:55 AM-11.2 °F-16.6 °F77 %30.34 in5.0 miNNW (340°)12.7 mphSnowLight Snow
10:15 AM-11.2 °F-16.6 °F77 %30.36 in6.0 miNNW (330°)12.7 mphSnowLight Snow
10:35 AM-11.2 °F-16.6 °F77 %30.37 in10.0 miNNW (340°)13.8 mphMostly Cloudy
10:55 AM-11.2 °F-16.6 °F77 %30.39 in10.0 miNorth (350°)12.7 mphMostly Cloudy
11:15 AM-11.2 °F-16.6 °F77 %30.40 in10.0 miNorth (360°)13.8 mphPartly Cloudy
11:35 AM-11.2 °F-16.6 °F77 %30.40 in10.0 miNorth (360°)13.8 mphClear
11:55 AM-11.2 °F-16.6 °F77 %30.41 in10.0 miNorth (360°)12.7 mphClear
12:15 PM-11.2 °F-16.6 °F77 %30.42 in10.0 miNorth (10°)12.7 mphScattered Clouds
12:35 PM-11.2 °F-16.6 °F77 %30.43 in10.0 miNorth (350°)11.5 mphOvercast
12:55 PM-11.2 °F-16.6 °F77 %30.44 in10.0 miNorth (350°)9.2 mphOvercast
1:15 PM-11.2 °F-18.4 °F70 %30.43 in9.0 miNorth (350°)10.4 mphSnowLight Snow
1:35 PM-11.2 °F-18.4 °F70 %30.43 in10.0 miNorth (360°)12.7 mphOvercast
1:55 PM-11.2 °F-18.4 °F70 %30.43 in10.0 miNorth (360°)11.5 mphScattered Clouds
2:15 PM-11.2 °F-18.4 °F70 %30.44 in10.0 miNorth (10°)12.7 mphClear
2:35 PM-11.2 °F-18.4 °F70 %30.45 in10.0 miNorth (10°)10.4 mphClear
2:55 PM-11.2 °F-18.4 °F70 %30.45 in10.0 miNorth (10°)15.0 mphClear
3:15 PM-11.2 °F-20.2 °F64 %30.45 in10.0 miNorth (10°)12.7 mphClear
3:35 PM-11.2 °F-20.2 °F64 %30.47 in10.0 miNorth (10°)10.4 mphClear
3:55 PM-11.2 °F-20.2 °F64 %30.48 in10.0 miNorth (10°)8.1 mphClear
4:15 PM-11.2 °F-20.2 °F64 %30.49 in10.0 miNNE (20°)5.8 mphClear
4:35 PM-11.2 °F-20.2 °F64 %30.50 in10.0 miCalmClear
4:55 PM-13.0 °F-20.2 °F70 %30.50 in10.0 miNNE (30°)4.6 mphClear
5:15 PM-14.8 °F-22.0 °F70 %30.51 in10.0 miNE (40°)5.8 mphClear
5:35 PM-16.6 °F-22.0 °F76 %30.50 in10.0 miNE (50°)5.8 mphClear
5:55 PM-16.6 °F-22.0 °F76 %30.51 in10.0 miNE (50°)5.8 mphClear
6:15 PM-16.6 °F-23.8 °F70 %30.51 in10.0 miNE (50°)5.8 mphClear
6:35 PM-18.4 °F-25.6 °F70 %30.51 in10.0 miNE (40°)6.9 mphClear
6:55 PM-18.4 °F-25.6 °F70 %30.51 in10.0 miNE (40°)4.6 mphClear
7:15 PM-18.4 °F-25.6 °F70 %30.51 in10.0 miNE (50°)4.6 mphClear
7:35 PM-18.4 °F-25.6 °F70 %30.50 in10.0 miENE (60°)4.6 mphClear
7:55 PM-18.4 °F-25.6 °F70 %30.49 in10.0 miENE (70°)6.9 mphClear
8:15 PM-18.4 °F-27.4 °F63 %30.49 in10.0 miEast (80°)8.1 mphClear
8:35 PM-18.4 °F-25.6 °F70 %30.49 in10.0 miENE (70°)5.8 mphClear
8:55 PM-18.4 °F-25.6 °F70 %30.49 in10.0 miEast (80°)5.8 mphClear
9:15 PM-16.6 °F-25.6 °F64 %30.50 in10.0 miEast (100°)4.6 mphClear
9:35 PM-16.6 °F-25.6 °F64 %30.51 in10.0 miEast (90°)5.8 mphClear
10:15 PM-16.6 °F-25.6 °F64 %30.50 in10.0 miESE (110°)4.6 mphClear
10:35 PM-16.6 °F-25.6 °F64 %30.51 in10.0 miSE (130°)4.6 mphClear
10:55 PM-16.6 °F-25.6 °F64 %30.51 in10.0 miSE (140°)4.6 mphMostly Cloudy
11:15 PM-16.6 °F-25.6 °F64 %30.50 in10.0 miSSE (150°)6.9 mphOvercast
11:35 PM-16.6 °F-25.6 °F64 %30.50 in10.0 miSE (140°)8.1 mphScattered Clouds
11:55 PM-16.6 °F-23.8 °F70 %30.50 in10.0 miSSE (150°)6.9 mphScattered Clouds
Hourly data recorded from K06D, located miles away from Rolla, North Dakota







STORIES FROM OUR PARTNERS